TimeCST,TemperatureF,Dew PointF,Humidity,Sea Level PressureIn,VisibilityMPH,Wind Direction,Wind SpeedMPH,Gust SpeedMPH,PrecipitationIn,Events,Conditions,WindDirDegrees,DateUTC
12:53 AM,63.0,62.1,97,29.63,5.0,SSE,13.8,24.2,0.00,Rain,Light Rain,150,2013-02-21 06:53:00
1:07 AM,66.0,62.1,87,29.65,6.0,SSE,12.7,23.0,0.00,,Overcast,150,2013-02-21 07:07:00
1:18 AM,64.0,62.1,93,29.65,6.0,SSE,11.5,20.7,0.00,,Overcast,150,2013-02-21 07:18:00
1:53 AM,64.9,63.0,93,29.64,5.0,South,12.7,-,0.00,Rain,Light Rain,180,2013-02-21 07:53:00
2:28 AM,64.9,63.0,93,29.65,6.0,SSE,8.1,-,0.00,,Overcast,160,2013-02-21 08:28:00
2:53 AM,64.9,63.0,93,29.61,6.0,SSE,10.4,17.3,0.00,,Overcast,160,2013-02-21 08:53:00
3:53 AM,66.0,63.0,90,29.59,8.0,South,12.7,19.6,0.00,,Overcast,170,2013-02-21 09:53:00
4:02 AM,66.0,63.0,90,29.61,8.0,SSE,12.7,26.5,N/A,,Overcast,160,2013-02-21 10:02:00
4:53 AM,66.9,63.0,87,29.58,8.0,South,12.7,23.0,N/A,,Overcast,170,2013-02-21 10:53:00
5:48 AM,66.2,62.6,88,29.62,7.0,South,10.4,-,N/A,,Overcast,170,2013-02-21 11:48:00
5:53 AM,66.0,63.0,90,29.60,7.0,SSE,12.7,20.7,N/A,,Overcast,160,2013-02-21 11:53:00
6:53 AM,66.0,63.0,90,29.63,6.0,South,11.5,-,N/A,,Overcast,180,2013-02-21 12:53:00
7:22 AM,57.9,48.9,72,29.72,8.0,NW,19.6,38.0,0.00,Rain,Light Rain,310,2013-02-21 13:22:00
7:34 AM,55.9,48.9,77,29.74,7.0,NW,13.8,25.3,0.00,Rain,Light Rain,310,2013-02-21 13:34:00
7:53 AM,55.9,48.0,75,29.74,10.0,WNW,16.1,25.3,0.00,,Mostly Cloudy,300,2013-02-21 13:53:00
8:53 AM,57.9,39.9,51,29.78,10.0,WNW,16.1,26.5,N/A,,Clear,290,2013-02-21 14:53:00
9:53 AM,60.1,34.0,38,29.79,10.0,West,21.9,32.2,N/A,,Clear,280,2013-02-21 15:53:00
11:53 AM,64.9,24.1,21,29.78,10.0,WNW,23.0,33.4,N/A,,Clear,290,2013-02-21 17:53:00
12:53 PM,66.9,23.0,19,29.75,10.0,West,21.9,33.4,N/A,,Clear,270,2013-02-21 18:53:00
1:53 PM,70.0,25.0,18,29.72,10.0,West,16.1,26.5,N/A,,Clear,260,2013-02-21 19:53:00
2:53 PM,72.0,19.9,14,29.70,10.0,West,15.0,29.9,N/A,,Clear,280,2013-02-21 20:53:00
3:53 PM,72.0,12.9,10,29.71,10.0,West,16.1,31.1,N/A,,Clear,270,2013-02-21 21:53:00
4:53 PM,71.1,15.1,12,29.73,10.0,WNW,16.1,23.0,N/A,,Clear,290,2013-02-21 22:53:00
5:53 PM,69.1,17.1,14,29.76,10.0,WNW,8.1,-,N/A,,Clear,300,2013-02-21 23:53:00
6:53 PM,63.0,21.9,21,29.79,10.0,Calm,Calm,-,N/A,,Clear,0,2013-02-22 00:53:00
7:53 PM,55.9,25.0,30,29.83,10.0,NNE,4.6,-,N/A,,Clear,20,2013-02-22 01:53:00
8:53 PM,59.0,21.9,24,29.85,10.0,NNW,6.9,-,N/A,,Clear,330,2013-02-22 02:53:00
10:53 PM,46.9,30.0,52,29.86,10.0,ENE,3.5,-,N/A,,Clear,70,2013-02-22 04:53:00
11:53 PM,48.0,28.0,46,29.85,10.0,North,6.9,-,N/A,,Clear,10,2013-02-22 05:53:00